Location: Courcelles
(49.2596°N, 1.7419°E)
Time: 00:06:35
(UTC+00:00)

Cosmos 371 Rocket - Pass Details

Date: 17 November 2025
Orbit: 674 x 690 km, 74.0° (Epoch: 05 December)

Event Time Altitude Azimuth Distance (km) Brightness Sun altitude
Rises 18:05:31 0° 183° (S) 3,030 6.7 -18.8°
Reaches altitude 10° 18:07:52 10° 178° (S) 2,122 5.9 -19.2°
Maximum altitude 18:12:25 45° 106° (ESE) 931 3.5 -19.9°
Enters shadow 18:12:46 44° 92° (E) 944 3.5 -20.0°
